Location: Newark
(7.0858°N, 171.3717°E)
Time: 02:51:07
(UTC+00:00)

Transit 4A - Pass Details

Date: 01 December 2020
Orbit: 864 x 980 km, 66.8° (Epoch: 20 January)

Event Time Altitude Azimuth Distance (km) Brightness Sun altitude
Rises 06:59:50 0° 321° (NW) 3,588 11.2 -11.0°
Reaches altitude 10° 07:02:41 10° 311° (NW) 2,626 10.6 -11.7°
Maximum altitude 07:07:54 30° 252° (WSW) 1,568 10.0 -12.9°
Drops below altitude 10° 07:13:00 10° 192° (SSW) 2,559 10.7 -14.0°
Sets 07:15:46 0° 182° (S) 3,482 11.2 -14.7°
